West West Elementary School FL US WEATHERSTEM current weather conditions

sailwx.info

Wind from 360 at 1 knots gusting 8

Air temperature 28.8° C
Dewpoint 23.9° C

Last reported at 2020-Aug-06 18:00 UTC.
Time now 2020-Aug-06 18:17 UTC

Location: N 27°13' W 081°52'.
View on Google Maps.

See reports from other nearby stations

  
Tides and Currents Weather Stations Pressure Air Temp Water Temp Dewpoint Dewpoint Depression Visibility Wind Speed Wind Dir Waves Ship Positions
date/time (UTC)wind fromknots sea level pressurealtimeterstation pressurevisibilityair tempwater tempwave heightnotes
2020-Aug-06 18:00 360 1 gusting 8 28.8
2020-Aug-06 17:50 360 4 gusting 12 32.0
2020-Aug-06 17:30 360 4 gusting 4 34.0
2020-Aug-06 17:20 360 2 gusting 5 33.9
2020-Aug-06 17:10 360 0 gusting 7 34.4
2020-Aug-06 17:00 360 3 gusting 3 34.3
2020-Aug-06 16:50 33.8
2020-Aug-06 16:30 360 1 gusting 4 32.9
2020-Aug-06 16:20 360 2 gusting 4 33.2
2020-Aug-06 16:10 360 3 gusting 5 32.8
2020-Aug-06 16:00 360 0 gusting 3 32.6
2020-Aug-06 15:50 360 0 gusting 6 32.5
2020-Aug-06 15:30 360 4 gusting 4 31.8
2020-Aug-06 15:20 360 0 gusting 5 31.8
2020-Aug-06 15:10 360 2 gusting 6 31.8
2020-Aug-06 15:00 360 1 gusting 6 31.7
2020-Aug-06 14:50 360 1 gusting 5 31.2
2020-Aug-06 14:30 360 2 gusting 3 30.7
2020-Aug-06 14:20 360 0 gusting 6 30.2
2020-Aug-06 14:10 360 2 gusting 3 29.9
2020-Aug-06 14:00 360 3 gusting 3 29.6
2020-Aug-06 13:50 360 2 gusting 4 29.0
2020-Aug-06 13:30 360 0 gusting 4 28.2
2020-Aug-06 13:20 360 1 gusting 4 27.8
2020-Aug-06 13:10 360 2 gusting 4 27.3
2020-Aug-06 13:00 360 1 gusting 7 26.8
2020-Aug-06 12:50 360 1 gusting 6 26.6
2020-Aug-06 12:40 360 1 gusting 5 25.8
2020-Aug-06 12:30 25.7
2020-Aug-06 12:20 360 2 gusting 5 25.3
2020-Aug-06 12:10 360 0 gusting 6 24.9
2020-Aug-06 12:00 360 1 gusting 3 24.6
2020-Aug-06 11:50 360 2 gusting 2 24.3
2020-Aug-06 11:40 360 0 gusting 2 23.9
2020-Aug-06 11:30 360 0 gusting 2 23.9
2020-Aug-06 11:20 23.9
2020-Aug-06 11:10 360 2 gusting 2 23.8
2020-Aug-06 11:00 360 0 gusting 3 23.8
2020-Aug-06 10:50 360 0 gusting 3 23.8
2020-Aug-06 10:40 360 0 gusting 2 23.8
2020-Aug-06 10:30 23.8
2020-Aug-06 10:20 360 0 gusting 2 23.9
2020-Aug-06 10:10 360 1 gusting 2 23.8
2020-Aug-06 10:00 23.8
2020-Aug-06 09:50 360 0 gusting 2 23.9
2020-Aug-06 09:40 360 1 gusting 2 23.9
2020-Aug-06 09:30 360 0 gusting 2 23.8
2020-Aug-06 09:20 360 0 gusting 1 23.8
2020-Aug-06 09:10 360 1 gusting 2 23.8
2020-Aug-06 09:00 360 0 gusting 2 23.8
2020-Aug-06 08:50 360 0 gusting 1 23.8
2020-Aug-06 08:40 360 0 gusting 1 23.8
2020-Aug-06 08:30 360 0 gusting 1 23.8
2020-Aug-06 08:20 23.9
2020-Aug-06 08:10 360 0 gusting 1 23.9
2020-Aug-06 08:00 360 0 gusting 1 23.9
2020-Aug-06 07:50 360 0 gusting 1 24.0
2020-Aug-06 07:40 360 0 gusting 1 24.0
2020-Aug-06 07:30 360 0 gusting 2 24.0
2020-Aug-06 07:20 24.0
2020-Aug-06 07:10 360 0 gusting 2 24.0
2020-Aug-06 06:50 23.9
2020-Aug-06 06:40 360 1 gusting 3 23.9
2020-Aug-06 06:30 360 0 gusting 3 23.9
2020-Aug-06 06:20 360 0 gusting 0 23.7
2020-Aug-06 06:10 23.8
2020-Aug-06 06:00 360 1 gusting 4 23.8
2020-Aug-06 05:50 360 0 gusting 5 23.8
2020-Aug-06 05:40 360 0 gusting 1 23.7
2020-Aug-06 05:30 23.7
2020-Aug-06 05:20 360 1 gusting 1 23.7
2020-Aug-06 05:10 360 0 gusting 1 23.8
2020-Aug-06 05:00 23.8
2020-Aug-06 04:50 23.8
2020-Aug-06 04:40 360 0 gusting 0 23.8
2020-Aug-06 04:30 23.8
2020-Aug-06 04:20 360 1 gusting 1 23.9
2020-Aug-06 04:10 23.9
2020-Aug-06 04:00 360 0 gusting 1 24.1
2020-Aug-06 03:50 360 0 gusting 1 24.1
2020-Aug-06 03:40 360 0 gusting 0 24.1
2020-Aug-06 03:30 24.1
2020-Aug-06 03:20 24.1
2020-Aug-06 03:10 360 0 gusting 1 24.2
2020-Aug-06 03:00 360 0 gusting 1 24.2
2020-Aug-06 02:50 360 0 gusting 1 24.3
2020-Aug-06 02:40 24.3
2020-Aug-06 02:30 360 1 gusting 2 24.3
2020-Aug-06 02:20 360 0 gusting 3 24.3
2020-Aug-06 02:00 360 0 gusting 4 24.3
2020-Aug-06 01:50 360 1 gusting 3 24.3
2020-Aug-06 01:30 360 1 gusting 4 24.3
2020-Aug-06 01:20 360 0 gusting 4 24.4
2020-Aug-06 01:10 360 1 gusting 4 24.6
2020-Aug-06 01:00 360 0 gusting 7 24.6
2020-Aug-06 00:50 360 2 gusting 8 24.6
2020-Aug-06 00:40 360 2 gusting 4 24.6
2020-Aug-06 00:30 360 1 gusting 4 24.6
2020-Aug-06 00:10 360 3 gusting 5 24.8
2020-Aug-06 00:00 360 2 gusting 4 24.9
2020-Aug-05 23:50 360 1 gusting 4 24.8
2020-Aug-05 23:40 360 2 gusting 10 24.8
2020-Aug-05 23:30 360 4 gusting 10 24.8
2020-Aug-05 23:20 360 1 gusting 6 25.1
2020-Aug-05 23:10 360 2 gusting 5 25.2
2020-Aug-05 23:00 360 0 gusting 3 25.4
2020-Aug-05 22:50 360 0 gusting 4 25.5
2020-Aug-05 22:40 360 2 gusting 8 25.7
2020-Aug-05 22:30 360 3 gusting 10 25.7
2020-Aug-05 22:20 360 4 gusting 4 25.7
2020-Aug-05 22:10 360 1 gusting 6 25.6
2020-Aug-05 22:00 360 4 gusting 12 25.7
2020-Aug-05 21:50 360 5 gusting 16 26.3
2020-Aug-05 21:40 360 5 gusting 9 28.6
2020-Aug-05 21:30 360 6 gusting 9 28.7
2020-Aug-05 21:20 360 3 gusting 10 29.3
2020-Aug-05 21:10 360 7 gusting 13 30.4
2020-Aug-05 21:00 360 5 gusting 9 31.6
2020-Aug-05 20:50 360 9 gusting 12 32.2
2020-Aug-05 20:40 360 4 gusting 9 32.1
2020-Aug-05 20:30 360 3 gusting 9 31.9
2020-Aug-05 20:20 360 6 gusting 9 31.7
2020-Aug-05 20:10 360 4 gusting 11 32.2
2020-Aug-05 20:00 360 2 gusting 5 33.6
2020-Aug-05 19:50 360 0 gusting 6 33.0
2020-Aug-05 19:40 360 4 gusting 9 32.3
2020-Aug-05 19:30 360 2 gusting 9 32.2
2020-Aug-05 19:20 360 0 gusting 7 32.7
2020-Aug-05 19:10 360 3 gusting 6 33.8
2020-Aug-05 19:00 360 3 gusting 7 33.8
2020-Aug-05 18:50 360 3 gusting 5 33.4
2020-Aug-05 18:40 360 2 gusting 5 33.2
2020-Aug-05 18:30 360 4 gusting 4 33.4
2020-Aug-05 18:20 360 3 gusting 6 32.9
2020-Aug-05 18:10 360 0 gusting 5 31.7
2020-Aug-05 18:00 360 1 gusting 5 31.7
2020-Aug-05 17:50 360 3 gusting 8 31.4
2020-Aug-05 17:40 360 5 gusting 10 31.6
2020-Aug-05 17:30 360 6 gusting 8 32.1
2020-Aug-05 17:20 360 0 gusting 5 31.9
2020-Aug-05 17:10 360 1 gusting 5 31.3
2020-Aug-05 17:00 360 2 gusting 5 31.3
2020-Aug-05 16:50 360 2 gusting 5 30.6
2020-Aug-05 16:40 360 4 gusting 4 29.7
2020-Aug-05 16:30 360 0 gusting 2 28.5
2020-Aug-05 16:20 27.6
2020-Aug-05 16:10 360 0 gusting 3 27.2
2020-Aug-05 16:00 360 2 gusting 3 27.2
2020-Aug-05 15:50 360 0 gusting 3 26.9
2020-Aug-05 15:40 360 1 gusting 2 26.7
2020-Aug-05 15:30 360 1 gusting 2 26.7
2020-Aug-05 15:20 360 0 gusting 2 26.8
2020-Aug-05 15:10 360 1 gusting 9 29.1
2020-Aug-05 15:00 360 1 gusting 9 29.2
2020-Aug-05 14:50 360 4 gusting 8 30.7
2020-Aug-05 14:40 360 5 gusting 6 30.9
2020-Aug-05 14:30 360 1 gusting 7 30.6
2020-Aug-05 14:20 360 2 gusting 8 30.4
2020-Aug-05 14:10 360 2 gusting 4 30.1
2020-Aug-05 14:00 360 3 gusting 4 30.1
2020-Aug-05 13:50 360 2 gusting 5 30.2
2020-Aug-05 13:40 29.7
2020-Aug-05 13:30 360 3 gusting 3 29.2
2020-Aug-05 13:10 360 0 gusting 4 27.8
2020-Aug-05 13:00 360 0 gusting 4 27.8
2020-Aug-05 12:50 360 0 gusting 4 27.2
2020-Aug-05 12:40 360 0 gusting 5 26.7
2020-Aug-05 12:30 360 1 gusting 3 26.3
2020-Aug-05 12:20 360 1 gusting 3 25.8
2020-Aug-05 12:10 360 1 gusting 4 25.5
2020-Aug-05 12:00 360 1 gusting 3 25.1
2020-Aug-05 11:50 360 0 gusting 3 24.9
2020-Aug-05 11:40 360 1 gusting 2 24.7
2020-Aug-05 11:30 360 0 gusting 2 24.6
2020-Aug-05 11:20 360 1 gusting 3 24.5
2020-Aug-05 11:10 360 1 gusting 3 24.4
2020-Aug-05 11:00 360 1 gusting 3 24.4
2020-Aug-05 10:50 360 1 gusting 3 24.4
2020-Aug-05 10:40 360 0 gusting 2 24.3
2020-Aug-05 10:30 360 1 gusting 3 24.3
2020-Aug-05 10:20 360 1 gusting 3 24.3
2020-Aug-05 10:10 360 1 gusting 3 24.2
2020-Aug-05 10:00 360 0 gusting 3 24.2
2020-Aug-05 09:50 360 1 gusting 4 24.2
2020-Aug-05 09:40 360 0 gusting 2 24.1
2020-Aug-05 09:30 360 0 gusting 2 24.1
2020-Aug-05 09:20 360 2 gusting 3 23.9
2020-Aug-05 09:10 360 1 gusting 3 23.8
2020-Aug-05 09:00 360 1 gusting 3 23.8
2020-Aug-05 08:50 360 1 gusting 2 23.7
2020-Aug-05 08:40 23.6
2020-Aug-05 08:30 360 0 gusting 1 23.6
2020-Aug-05 08:20 360 0 gusting 2 23.6
2020-Aug-05 08:10 360 0 gusting 1 23.6
2020-Aug-05 08:00 23.6
2020-Aug-05 07:50 23.6
2020-Aug-05 07:40 360 0 gusting 3 23.6
2020-Aug-05 07:30 360 0 gusting 1 23.6
2020-Aug-05 07:20 23.6
2020-Aug-05 07:10 360 0 gusting 2 23.6
2020-Aug-05 07:00 360 1 gusting 2 23.6
2020-Aug-05 06:50 360 2 gusting 2 23.6
2020-Aug-05 06:40 360 1 gusting 2 23.6
2020-Aug-05 06:30 360 0 gusting 3 23.7
2020-Aug-05 06:20 360 1 gusting 2 23.7
2020-Aug-05 06:10 360 0 gusting 1 23.8
2020-Aug-05 06:00 360 0 gusting 1 23.8
2020-Aug-05 05:50 23.9
2020-Aug-05 05:40 360 0 gusting 1 23.9
2020-Aug-05 05:30 360 0 gusting 2 23.9
2020-Aug-05 05:20 360 0 gusting 1 24.0
2020-Aug-05 05:10 360 0 gusting 2 24.2
2020-Aug-05 05:00 360 1 gusting 2 24.2
2020-Aug-05 04:50 360 1 gusting 2 24.3
2020-Aug-05 04:40 24.3
2020-Aug-05 04:30 24.4
2020-Aug-05 04:20 24.4
2020-Aug-05 04:00 24.6
2020-Aug-05 03:50 24.7
2020-Aug-05 03:40 24.7
2020-Aug-05 03:30 24.7
2020-Aug-05 03:20 24.8
2020-Aug-05 03:10 360 0 gusting 1 24.8
2020-Aug-05 03:00 360 0 gusting 1 24.8
2020-Aug-05 02:50 360 1 gusting 1 24.8
2020-Aug-05 02:40 24.8
2020-Aug-05 02:30 360 0 gusting 0 24.8
2020-Aug-05 02:20 24.8
2020-Aug-05 02:10 24.8
2020-Aug-05 02:00 360 0 gusting 1 24.8
2020-Aug-05 01:40 360 0 gusting 1 24.8
2020-Aug-05 01:30 24.8
2020-Aug-05 01:20 360 1 gusting 1 24.8
2020-Aug-05 01:10 360 0 gusting 1 24.7
2020-Aug-05 01:00 360 0 gusting 1 24.7
2020-Aug-05 00:50 24.7
2020-Aug-05 00:30 24.7
2020-Aug-05 00:20 360 0 gusting 5 24.8
2020-Aug-05 00:10 24.8
2020-Aug-04 23:50 360 0 gusting 2 24.6
2020-Aug-04 23:40 360 0 gusting 4 24.5
2020-Aug-04 23:20 360 1 gusting 5 24.7
2020-Aug-04 23:10 360 2 gusting 7 24.8
2020-Aug-04 22:50 360 2 gusting 11 25.8
2020-Aug-04 22:40 360 10 gusting 13 26.0
2020-Aug-04 22:30 360 5 gusting 13 26.7
2020-Aug-04 22:20 360 5 gusting 13 28.4
2020-Aug-04 22:10 360 5 gusting 15 31.4
2020-Aug-04 21:50 360 1 gusting 8 35.0
2020-Aug-04 21:40 360 2 gusting 9 34.9
2020-Aug-04 21:30 360 4 gusting 8 35.3
2020-Aug-04 21:20 360 4 gusting 8 34.7
2020-Aug-04 21:10 360 7 gusting 9 34.9
2020-Aug-04 20:50 360 4 gusting 8 35.3
2020-Aug-04 20:40 360 5 gusting 9 35.3
2020-Aug-04 20:30 360 6 gusting 9 35.2
2020-Aug-04 20:20 360 4 gusting 11 34.6
2020-Aug-04 20:10 360 0 gusting 10 34.9
2020-Aug-04 19:40 360 4 gusting 8 34.8
2020-Aug-04 19:30 360 2 gusting 10 34.8
2020-Aug-04 19:20 360 4 gusting 10 34.7
2020-Aug-04 19:10 360 0 gusting 8 34.4
2020-Aug-04 18:50 360 8 gusting 9 34.1
2020-Aug-04 18:40 360 2 gusting 9 33.8
2020-Aug-04 18:30 360 5 gusting 8 33.7
2020-Aug-04 18:20 360 4 gusting 12 33.2
2020-Aug-04 18:10 360 3 gusting 9 33.1